Terminal Aerodrome Forecast
Issued by NWS

Home | Current Version | Previous Version | Text Only | Print | Product List | Glossary On
Versions: 1 2 3 4 5 6 7 8 9 10 11 12 13 14 15 16 17 18 19 20
000
FTUS44 KLZK 240500
TAFADF
TAF
KADF 240539Z 2406/2506 14003KT P6SM BKN250
     FM241500 19010G18KT P6SM VCSH BKN040
     FM241900 23012G20KT P6SM VCSH OVC035
     FM250000 27009KT P6SM BKN040=

USA.gov is the U.S. government's official web portal to all federal, state and local government web resources and services.